TimePDT,TemperatureF,Dew PointF,Humidity,Sea Level PressureIn,VisibilityMPH,Wind Direction,Wind SpeedMPH,Gust SpeedMPH,PrecipitationIn,Events,Conditions,WindDirDegrees,DateUTC
12:23 AM,57.2,53.6,88,29.68,6.0,SE,13.8,-,0.05,Rain,Rain,140,2011-10-05 07:23:00
12:56 AM,57.2,53.6,88,29.65,4.0,SSE,13.8,-,N/A,Rain,Heavy Rain,150,2011-10-05 07:56:00
1:56 AM,57.9,55.0,90,29.62,2.0,SSE,16.1,26.5,0.22,Rain,Heavy Rain,160,2011-10-05 08:56:00
2:19 AM,60.8,55.4,82,29.65,3.0,SSW,29.9,40.3,0.11,Rain,Rain,200,2011-10-05 09:19:00
2:56 AM,57.2,55.4,94,29.66,10.0,West,18.4,-,N/A,Rain,Light Rain,270,2011-10-05 09:56:00
3:56 AM,57.9,54.0,87,29.68,10.0,West,11.5,-,0.00,,Mostly Cloudy,270,2011-10-05 10:56:00
4:56 AM,57.9,53.1,84,29.69,10.0,West,16.1,21.9,N/A,,Mostly Cloudy,260,2011-10-05 11:56:00
5:56 AM,57.9,53.1,84,29.71,10.0,West,8.1,-,N/A,,Mostly Cloudy,270,2011-10-05 12:56:00
6:56 AM,57.9,52.0,81,29.73,10.0,WSW,13.8,-,N/A,,Mostly Cloudy,250,2011-10-05 13:56:00
7:56 AM,57.2,50.0,77,29.75,10.0,West,12.7,-,N/A,,Scattered Clouds,280,2011-10-05 14:56:00
8:56 AM,59.0,46.9,64,29.77,10.0,West,9.2,-,N/A,,Partly Cloudy,280,2011-10-05 15:56:00
9:56 AM,61.0,48.0,62,29.79,10.0,West,11.5,-,N/A,,Mostly Cloudy,280,2011-10-05 16:56:00
10:56 AM,62.6,46.4,55,29.81,10.0,West,13.8,19.6,N/A,,Mostly Cloudy,280,2011-10-05 17:56:00
11:33 AM,53.6,46.4,77,29.82,7.0,NW,15.0,36.8,0.09,Rain,Heavy Rain,320,2011-10-05 18:33:00
11:46 AM,55.4,48.2,77,29.82,8.0,WSW,10.4,-,0.29,Rain,Heavy Rain,250,2011-10-05 18:46:00
11:56 AM,59.0,52.0,78,29.82,9.0,SW,6.9,-,0.30,Rain,Light Rain,220,2011-10-05 18:56:00
12:56 PM,62.1,48.9,62,29.82,10.0,West,13.8,23.0,0.00,,Mostly Cloudy,260,2011-10-05 19:56:00
1:56 PM,63.0,46.9,56,29.81,10.0,West,15.0,26.5,N/A,,Mostly Cloudy,260,2011-10-05 20:56:00
2:56 PM,62.1,45.0,53,29.80,10.0,WSW,13.8,21.9,N/A,,Mostly Cloudy,240,2011-10-05 21:56:00
3:56 PM,62.1,46.9,58,29.80,10.0,WSW,19.6,-,N/A,,Mostly Cloudy,240,2011-10-05 22:56:00
4:56 PM,61.0,48.9,64,29.80,10.0,West,20.7,-,0.01,,Mostly Cloudy,260,2011-10-05 23:56:00
5:56 PM,59.0,48.9,69,29.80,10.0,West,16.1,-,N/A,,Mostly Cloudy,260,2011-10-06 00:56:00
6:56 PM,57.9,48.0,70,29.82,10.0,West,12.7,-,N/A,,Scattered Clouds,260,2011-10-06 01:56:00
7:56 PM,57.9,50.0,75,29.83,10.0,West,12.7,-,N/A,,Partly Cloudy,260,2011-10-06 02:56:00
8:56 PM,57.0,50.0,77,29.86,10.0,West,10.4,-,N/A,,Partly Cloudy,280,2011-10-06 03:56:00
9:56 PM,57.0,50.0,77,29.87,10.0,West,8.1,-,N/A,,Partly Cloudy,260,2011-10-06 04:56:00
10:56 PM,57.0,48.9,74,29.88,10.0,West,10.4,-,N/A,,Scattered Clouds,270,2011-10-06 05:56:00
11:56 PM,55.9,48.0,75,29.90,10.0,West,6.9,-,N/A,,Partly Cloudy,270,2011-10-06 06:56:00